Torna al catalogo

STARLINK-5508

AttivoComunicazioniVLEO
NORAD 55639·PAYLOAD·🇺🇸 United States

Lanciato Feb 17, 2023 da Vandenberg Space Force Base

Loading…

Prossimi Passaggi (prossime 24 ore)

TLE

AggiornatoSource: CelesTrak SupGP

Epoca: Sep 15, 2026, 01:45 UTC

1 55639C 23021M   26258.07340278 -.00049133  00000+0 -41180-2 0  2585
2 55639  70.0011  66.9395 0002716 267.4387 306.7141 14.98351504    13

Traccia STARLINK-5508 in tempo reale con AllMySat

Download on the App Store